2018-004AB (43136 NORAD) Tracking and Keplerian Element Data

This shows tracking and keplerian element data for the satellite.

Feedback or suggestion? Click here.




ElementValue
Catalog43136
Name2018-004AB
Epoch Orbit27892
Epoch Day14.19835397
Epoch Year2023
RAAN98.8256
Inclination97.3592
Eccentricity0.0005232
Argument of Perigee321.3737
Mean Anonmoly38.7138
Mean Motion15.46628309
Decay Rate0.00087466
L11 43136U 18004AB 23014.19835397 .00087466 00000+0 17389-2 0 9995
L22 43136 97.3592 98.8256 0005232 321.3737 38.7138 15.46628309278922



Live tracking and technical data element details for 2018-004AB (NORAD 43136). 2018-004AB can be tracked NOW for your location showing map with azimuth and elevation plus other details from your city location.







IsCatalogInMostPopularTable: catalog: 43136, numindb: 756
Update: records affected: 1



GetName: 43136 2018-004AB

Hit Count: updated at: Thu, 13 Feb 2025 14:50:59 GMT